Overview Statistics Trail Chart Weather Telemetry Raw packets
 

This is the latest recevied weather packets stored in our database for station/object R2AKT-13. If no packets are shown the sender has not sent any weather packets the latest 10 day(s).

<< 8 9 10 11 12 13 14 >>
Time Temp. Humidity Pressure Rain* Wind** Luminosity Snow
1788588951 12.78° C 84% 971.6 hPa - 2.24 m/s, 179° - -
1788588371 12.22° C 84% 971.8 hPa - 5.36 m/s, 170° - -
1788587791 12.22° C 84% 972.3 hPa - 5.36 m/s, 168° - -
1788587311 12.22° C 84% 972.5 hPa - 3.13 m/s, 158° - -
1788586736 12.22° C 83% 972.7 hPa - 2.24 m/s, 178° - -
1788586226 12.22° C 83% 973.1 hPa - 4.47 m/s, 161° - -
1788585696 12.22° C 83% 973.3 hPa - 4.92 m/s, 170° - -
1788585136 12.22° C 83% 973.7 hPa - 3.58 m/s, 171° - -
1788584620 12.22° C 82% 974 hPa - 4.92 m/s, 169° - -
1788584091 12.22° C 81% 974.1 hPa - 5.81 m/s, 165° - -
1788583591 12.22° C 80% 974.4 hPa - 5.81 m/s, 167° - -
1788583051 12.22° C 80% 974.8 hPa - 4.92 m/s, 174° - -
1788582471 12.78° C 79% 974.9 hPa - 5.36 m/s, 171° - -
1788581891 12.78° C 78% 975.2 hPa - 4.92 m/s, 173° - -
1788581331 12.78° C 78% 975.7 hPa - 2.68 m/s, 174° - -
1788580785 12.78° C 77% 975.8 hPa - 2.24 m/s, 163° - -
1788580215 12.78° C 75% 975.9 hPa - 3.58 m/s, 169° - -
1788579641 12.78° C 75% 976.1 hPa - 4.47 m/s, 169° - -
1788579096 13.33° C 75% 976.2 hPa - 4.47 m/s, 169° - -
1788578501 13.33° C 75% 976.4 hPa - 4.47 m/s, 170° - -
1788577931 13.33° C 75% 976.4 hPa - 3.58 m/s, 170° - -
1788577421 12.78° C 75% 976.6 hPa - 4.02 m/s, 173° - -
1788576866 13.33° C 75% 976.7 hPa - 5.81 m/s, 171° - -
1788576291 13.33° C 74% 976.8 hPa - 5.81 m/s, 170° - -
1788575806 12.78° C 75% 977 hPa - 4.47 m/s, 166° - -

* Rain since midnight (hover to see other rain measurements)
** Current wind speed in m/s (hover to see current wind gust speed)